[[{"header":{"parameterUnit":"m.s-1","parameterCategory":1,"la1":30.2992,"la2":30.254,"lo1":-89.0895,"lo2":-89.0443,"dy":0.0025,"dx":0.0025,"nx":19,"ny":19,"refTime":"2026-05-03T03:00:00:Z","depth":0,"parameterNumber":2,"parameterNumberName":"U-component_of_WINDS"},"data":[0,0,0,-0.2925,-0.2925,-0.2916,-0.2916,-0.2912,-0.2912,0,0,0,0,0,0,0,0,0,0,0,-0.2933,-0.2934,-0.2925,-0.2925,-0.2916,-0.2916,-0.2912,-0.2912,0,0,0,0,0,0,0,0,0,0,0,-0.2933,-0.2934,-0.2934,-0.2925,-0.2916,-0.2916,-0.2912,-0.2916,0,0,0,0,0,0,0,0,0,0,-0.2924,-0.2937,-0.2933,-0.2934,-0.2925,-0.2916,-0.2916,-0.2916,-0.2916,-0.292,0,-0.2926,0,-0.2919,-0.2913,-0.2913,0,0,0,-0.2921,-0.2937,-0.293,-0.2934,-0.2925,-0.2916,-0.2919,-0.2916,-0.2916,-0.292,-0.2926,-0.2925,-0.2919,-0.2913,-0.2913,-0.295,-0.2951,0,0,-0.2922,-0.2935,-0.293,-0.293,-0.2932,-0.2919,-0.2919,-0.2916,-0.2923,-0.2926,-0.2925,-0.2919,-0.2913,-0.2913,-0.295,-0.2951,0,0,0,-0.2926,-0.2936,-0.2928,-0.293,-0.2928,-0.2919,-0.2918,-0.2923,-0.2919,-0.2925,-0.2919,-0.2913,-0.2913,-0.295,-0.295,-0.2981,0,0,0,-0.2926,-0.2938,-0.2928,-0.2936,-0.2928,-0.2925,-0.2926,-0.292,-0.2919,-0.2919,-0.2913,-0.2913,-0.2949,-0.295,-0.298,-0.2995,0,0,0,-0.2932,-0.2938,-0.2939,-0.2937,-0.2933,-0.2925,-0.2921,-0.2919,-0.2915,-0.2913,-0.2913,-0.2949,-0.295,-0.2978,-0.2992,-0.3008,0,0,0,-0.2943,-0.2968,-0.294,-0.2965,-0.2934,-0.2944,-0.2921,-0.2928,-0.293,-0.2913,-0.2949,-0.295,-0.2978,-0.299,-0.3007,-0.3025,-0.3034,0,0,-0.2982,-0.2973,-0.2986,-0.2961,-0.298,-0.2945,-0.2968,-0.2957,-0.2944,-0.2949,-0.295,-0.298,-0.2992,-0.3008,-0.3076,-0.3083,0,0,0,-0.3003,-0.3013,-0.3015,-0.3017,-0.3008,-0.3002,-0.2986,-0.2981,-0.2984,-0.295,-0.299,-0.2996,-0.3005,-0.3013,-0.3019,-0.3026,-0.2954,-0.2954,-0.2954,-0.3079,-0.306,-0.3081,-0.3061,-0.3063,-0.3045,-0.3044,-0.3035,-0.3017,-0.3026,-0.3028,-0.3072,-0.3082,-0.3086,-0.3094,-0.3036,-0.3036,-0.3036,-0.3036,-0.3134,-0.3145,-0.3118,-0.3129,-0.3109,-0.3118,-0.3101,-0.3087,-0.3092,-0.307,-0.3076,-0.3055,-0.3095,-0.31,-0.3038,-0.3038,-0.3037,-0.3037,-0.3037,-0.3182,-0.3184,-0.3178,-0.3177,-0.3178,-0.3156,-0.3162,-0.3143,-0.3126,-0.3133,-0.3132,-0.3132,-0.3129,-0.3134,-0.3134,-0.3134,-0.3134,-0.3134,-0.3134,-0.3236,-0.3227,-0.3234,-0.3225,-0.3223,-0.3217,-0.3197,-0.3194,-0.3186,-0.3172,-0.3172,-0.3153,-0.3102,-0.3089,-0.3137,-0.3136,-0.3136,-0.3136,-0.3135,-0.3301,-0.3282,-0.3293,-0.3291,-0.3278,-0.328,-0.3255,-0.325,-0.3245,-0.3248,-0.3226,-0.3191,-0.3181,-0.3176,-0.3166,-0.323,-0.323,-0.323,-0.323,-0.3342,-0.3334,-0.334,-0.3337,-0.3332,-0.331,-0.3322,-0.3306,-0.3286,-0.3282,-0.3269,-0.3254,-0.325,-0.3242,-0.3236,-0.3226,-0.3304,-0.3304,-0.3304,-0.3381,-0.3372,-0.3386,-0.3366,-0.3354,-0.3344,-0.3354,-0.3351,-0.3325,-0.3307,-0.3278,-0.3274,-0.3249,-0.3242,-0.3225,-0.3216,-0.3198,0,0]},{"header":{"parameterUnit":"m.s-1","parameterCategory":1,"la1":30.2992,"la2":30.254,"lo1":-89.0895,"lo2":-89.0443,"dy":0.0025,"dx":0.0025,"nx":19,"ny":19,"refTime":"2026-05-03T03:00:00:Z","depth":0,"parameterNumber":3,"parameterNumberName":"V-component_of_WINDS"},"data":[0,0,0,-7.752,-7.7522,-7.7645,-7.7646,-7.7809,-7.7811,0,0,0,0,0,0,0,0,0,0,0,-7.7489,-7.7491,-7.7519,-7.7523,-7.7645,-7.7646,-7.7809,-7.7811,0,0,0,0,0,0,0,0,0,0,0,-7.7489,-7.749,-7.7492,-7.7523,-7.7645,-7.7646,-7.7808,-7.7713,0,0,0,0,0,0,0,0,0,0,-7.7592,-7.7571,-7.749,-7.7492,-7.7524,-7.7645,-7.7646,-7.7708,-7.7719,-7.7757,0,-7.7795,0,-7.7806,-7.7822,-7.7823,0,0,0,-7.7517,-7.7562,-7.759,-7.7492,-7.7525,-7.7645,-7.7588,-7.7714,-7.7726,-7.7771,-7.7797,-7.7803,-7.7808,-7.7823,-7.7824,-7.807,-7.8072,0,0,-7.751,-7.7514,-7.7582,-7.7598,-7.7583,-7.7584,-7.7592,-7.7721,-7.7748,-7.7798,-7.7807,-7.7811,-7.7824,-7.7826,-7.8069,-7.8071,0,0,0,-7.7494,-7.7509,-7.7534,-7.7592,-7.7614,-7.7588,-7.7597,-7.7743,-7.7751,-7.7808,-7.7813,-7.7825,-7.7828,-7.8068,-7.807,-7.8145,0,0,0,-7.749,-7.75,-7.7531,-7.7535,-7.7612,-7.768,-7.7616,-7.7742,-7.7756,-7.7812,-7.7826,-7.7829,-7.8066,-7.8069,-7.814,-7.818,0,0,0,-7.7479,-7.7499,-7.7519,-7.7535,-7.7588,-7.7678,-7.7693,-7.7745,-7.7759,-7.7823,-7.783,-7.8065,-7.8068,-7.8135,-7.8172,-7.8247,0,0,0,-7.7467,-7.7582,-7.7521,-7.765,-7.7587,-7.7725,-7.7692,-7.7794,-7.7857,-7.7826,-7.8066,-7.807,-7.8134,-7.8167,-7.8242,-7.8311,-7.8341,0,0,-7.7614,-7.76,-7.7676,-7.7625,-7.7775,-7.7706,-7.7866,-7.7919,-7.7919,-7.8019,-7.8025,-7.8142,-7.8171,-7.8246,-7.8504,-7.8527,0,0,0,-7.7724,-7.7779,-7.7818,-7.788,-7.7926,-7.7968,-7.7996,-7.8016,-7.8101,-7.7973,-7.8189,-7.8206,-7.825,-7.8283,-7.8303,-7.834,-7.8085,-7.8085,-7.8084,-7.7935,-7.7934,-7.806,-7.8074,-7.8134,-7.8164,-7.8213,-7.8244,-7.8221,-7.8272,-7.8302,-7.8459,-7.8498,-7.8513,-7.8552,-7.8338,-7.8338,-7.8339,-7.8339,-7.815,-7.8228,-7.8199,-7.8311,-7.8308,-7.8401,-7.8434,-7.8415,-7.85,-7.8436,-7.8474,-7.8404,-7.8539,-7.8572,-7.8345,-7.8344,-7.8343,-7.8342,-7.8342,-7.8289,-7.8326,-7.8351,-7.8443,-7.8514,-7.8522,-7.8607,-7.8599,-7.8592,-7.863,-7.8661,-7.866,-7.8658,-7.8646,-7.8646,-7.8647,-7.8647,-7.8648,-7.8648,-7.8423,-7.8449,-7.8523,-7.8583,-7.8623,-7.8675,-7.8708,-7.8746,-7.8787,-7.8774,-7.8775,-7.8747,-7.8553,-7.8504,-7.8657,-7.8655,-7.8654,-7.8653,-7.8653,-7.8642,-7.8592,-7.8706,-7.8747,-7.8818,-7.8889,-7.888,-7.896,-7.899,-7.9032,-7.8997,-7.8855,-7.8838,-7.8823,-7.8782,-7.8998,-7.8998,-7.8998,-7.8998,-7.8759,-7.8752,-7.8868,-7.8934,-7.8998,-7.9002,-7.913,-7.9156,-7.9175,-7.9193,-7.9161,-7.9107,-7.9091,-7.9084,-7.9063,-7.9025,-7.9297,-7.9297,-7.9298,-7.8894,-7.8893,-7.9004,-7.9025,-7.9081,-7.9128,-7.9248,-7.9323,-7.9333,-7.931,-7.9208,-7.9195,-7.9108,-7.908,-7.9053,-7.902,-7.895,0,0]}]]